Location: Caltech
(34.1382°N, 118.1253°W)
Time: 14:15:26
(UTC-07:00)

Gbstr 26 Del rocket - Visible Passes

Search period start: 30 July 2014 00:00
Search period end: 09 August 2014 00:00
Orbit: 494 x 1279 km, 51.8° (Epoch: 29 July)

Date Brightness Start Highest point End Pass type
(mag) Time Alt. Az. Time Alt. Az. Time Alt. Az.
30 Jul 5.4 21:50:20 10° NNW 21:55:30 25° NNE 21:58:32 16° ENE visible
30 Jul 4.9 23:37:46 10° NW 23:41:13 35° NW 23:41:13 35° NW visible
31 Jul 5.1 21:47:57 10° NNW 21:53:29 29° NNE 21:56:05 20° ENE visible
31 Jul 5.0 23:35:32 10° NW 23:38:46 32° WNW 23:38:46 32° WNW visible
01 Aug 4.8 21:45:34 10° NW 21:51:26 35° NNE 21:53:40 26° ENE visible
01 Aug 5.2 23:33:21 10° WNW 23:36:21 27° WNW 23:36:21 27° WNW visible
02 Aug 4.5 21:43:11 10° NW 21:49:20 43° NNE 21:51:18 32° E visible
02 Aug 5.4 23:31:17 10° WNW 23:33:59 23° W 23:33:59 23° W visible
03 Aug 4.1 21:40:48 10° NW 21:47:11 54° NE 21:48:58 38° E visible
03 Aug 5.6 23:29:20 10° WNW 23:31:40 19° W 23:31:40 19° W visible
04 Aug 3.8 21:38:28 10° NW 21:44:59 69° NE 21:46:42 44° ESE visible
04 Aug 5.9 23:27:37 10° WNW 23:29:24 15° W 23:29:24 15° W visible
05 Aug 3.6 21:36:09 10° NW 21:42:44 88° NE 21:44:29 46° SE visible
05 Aug 6.1 23:26:22 10° W 23:27:11 12° W 23:27:11 12° W visible
06 Aug 3.8 21:33:53 10° NW 21:40:25 72° SW 21:42:19 42° SSE visible
07 Aug 4.1 21:31:40 10° NW 21:38:02 54° SW 21:40:13 34° S visible
08 Aug 4.6 21:29:32 10° WNW 21:35:36 41° SW 21:38:10 26° S visible
